Tracking 32420 objects as of 8-Dec-2025
HD Live streaming from Space Station
objects crossing your sky now

STARLINK-31230

Track STARLINK-31230 now!
10-day predictions
STARLINK-31230 is classified as:


NORAD ID: 58890
Int'l Code: 2024-020Q
Perigee: 481.5 km
Apogee: 483.3 km
Inclination: 53.2 °
Period: 94.1 minutes
Semi major axis: 6853 km
RCS: Unknown
Launch date: January 29, 2024
Source: United States (US)
Launch site: AIR FORCE WESTERN TEST RANGE (AFWTR)
Your satellite tracking list
Your tracking list is empty




NASA's NSSDC Master Catalog

Two Line Element Set (TLE):
1 58890U 24020Q   25341.86891379 -.00000902  00000-0 -18331-4 0  9997
2 58890  53.1621  26.7691 0001307  66.1029 294.0108 15.30195356104047
Source of the keplerian elements: AFSPC